Location: Noverd
(38.0910°N, 121.6877°W)
Time: 18:01:17
(UTC+00:00)

Cosmos 2100 Rocket - Visible Passes

Search period start: 17 May 2026 00:00
Search period end: 27 May 2026 00:00
Orbit: 956 x 999 km, 82.9° (Epoch: 17 May)

Date Brightness Start Highest point End Pass type
(mag) Time Alt. Az. Time Alt. Az. Time Alt. Az.
17 May 6.7 05:09:33 10° WSW 05:13:20 16° WNW 05:17:10 10° NNW visible
18 May 4.6 03:47:02 10° SSW 03:53:11 64° W 03:59:29 10° N visible
19 May 5.8 04:13:40 10° SW 04:19:16 34° WNW 04:25:00 10° NNW visible
20 May 6.7 04:41:18 10° WSW 04:45:34 19° WNW 04:49:53 10° NNW visible
22 May 5.6 03:45:45 10° SW 03:51:33 39° WNW 03:57:28 10° N visible
23 May 6.7 04:13:07 10° WSW 04:17:48 22° WNW 04:22:32 10° NNW visible
24 May 7.2 04:42:32 10° W 04:44:15 11° WNW 04:45:59 10° NW visible
26 May 6.6 03:45:01 10° SW 03:50:02 25° WNW 03:55:08 10° NNW visible
